WB7TUJ Weather Reports


Display with metric or nautical units.
time (UTC)temp
F
wind
direction
speed
MPH
gust
MPH
rain 1hr
in
rain 24hr
in
rain mn
in
humidity
%
barometer
mb
20260904123010 84 135 0.0 0.0 0.00 2.31 0.01 62 966.5
20260904121509 84 125 0.0 0.0 0.00 2.31 0.01 61 966.4
20260904120007 85 125 0.0 0.0 0.00 2.31 0.01 61 966.3
20260904114506 85 144 0.0 0.0 0.00 2.31 0.01 60 966.3
20260904113004 85 144 0.0 7.0 0.00 2.31 0.01 60 966.3
20260904111503 86 144 0.0 8.0 0.00 2.31 0.01 59 966.3
20260904110002 86 134 1.0 7.0 0.00 2.31 0.01 59 966.3
20260904104502 86 138 0.0 0.0 0.00 2.31 0.01 59 966.2
20260904103104 86 138 0.0 0.0 0.00 2.31 0.01 58 966.1
20260904101558 86 137 0.0 9.0 0.00 2.31 0.01 58 966.0
20260904100121 86 134 0.0 0.0 0.00 2.31 0.01 57 966.0
20260904094557 86 131 0.0 4.0 0.00 2.31 0.01 57 966.0
20260904093103 86 136 0.0 0.0 0.00 2.31 0.01 56 965.9
20260904091559 86 171 0.0 1.0 0.00 2.31 0.01 56 965.9
20260904090056 86 171 0.0 0.0 0.00 2.31 0.01 57 965.9
20260904084604 86 171 0.0 0.0 0.00 2.31 0.01 57 965.9
20260904083056 86 171 0.0 0.0 0.01 2.31 0.01 57 965.9
20260904081555 86 171 0.0 5.0 0.01 2.31 0.01 57 966.1
20260904080051 86 143 0.0 0.0 0.01 2.31 0.01 56 966.1
20260904074601 87 140 2.0 7.0 0.01 2.31 0.01 56 966.1
20260904073047 87 144 0.0 7.0 0.02 2.31 0.00 56 966.0
20260904071610 87 145 1.0 7.0 0.05 2.31 0.00 55 966.0
20260904070047 88 130 0.0 7.0 0.13 2.31 0.00 54 965.9
20260904064601 88 121 0.0 9.0 0.13 2.31 2.31 54 965.6
20260904063050 89 143 5.0 11.0 0.11 2.29 2.29 53 965.6
20260904061542 89 167 3.0 8.0 0.05 2.23 2.23 52 965.5
20260904060042 90 140 1.0 7.0 0.00 2.18 2.18 51 965.4
20260904054541 90 149 0.0 5.0 0.00 2.18 2.18 50 965.3
20260904053050 90 150 0.0 8.0 0.00 2.18 2.18 49 965.3
20260904051541 91 140 0.0 8.0 0.00 2.18 2.18 48 965.2
20260904050046 92 136 0.0 0.0 0.00 2.18 2.18 45 965.1
20260904044540 92 136 0.0 8.0 0.00 2.18 2.18 45 965.1
20260904043043 91 76 0.0 0.0 0.00 2.18 2.18 45 965.1
20260904041542 91 76 0.0 0.0 0.00 2.18 2.18 46 965.1
20260904040138 91 76 0.0 0.0 0.00 2.18 2.18 46 964.9
20260904034538 91 76 0.0 0.0 0.00 2.18 2.18 46 964.6
20260904033041 91 76 0.0 0.0 0.00 2.18 2.18 46 964.2
20260904031543 91 76 0.0 0.0 0.00 2.18 2.18 47 964.1
20260904030038 90 76 0.0 0.0 0.01 2.18 2.18 47 964.0
20260904024537 90 76 0.0 2.0 0.05 2.18 2.18 48 963.9
20260904023035 91 98 0.0 6.0 0.16 2.18 2.18 47 963.8
20260904021545 92 138 0.0 5.0 0.53 2.18 2.18 47 963.7
20260904020040 91 141 1.0 9.0 1.04 2.17 2.17 47 963.8
20260904014534 92 153 3.0 13.0 1.01 2.15 2.13 46 963.8
20260904013033 92 90 4.0 14.0 0.90 2.04 2.02 44 963.8
20260904011534 95 173 14.0 22.0 0.54 1.67 1.65 41 963.6
20260904010033 98 149 0.0 8.0 0.02 1.14 1.12 36 963.3
20260904004532 98 210 0.0 7.0 0.01 1.13 1.12 35 963.3
20260904003031 99 287 0.0 7.0 0.03 1.13 1.12 35 963.3
20260904001530 98 67 0.0 0.0 0.02 1.12 1.11 35 963.3
20260904000030 99 183 0.0 4.0 0.02 1.12 1.11 35 963.5
20260903234528 98 132 2.0 10.0 0.04 1.13 1.11 35 963.6
20260903233033 99 122 0.0 6.0 0.02 1.12 1.09 34 963.7
20260903231526 98 96 0.0 0.0 0.02 1.12 1.09 35 963.7
20260903230026 98 201 0.0 8.0 0.03 1.12 1.09 35 963.9
20260903224528 99 190 0.0 8.0 0.14 1.22 1.07 34 964.1
20260903223018 99 61 0.0 0.0 0.17 1.22 1.07 35 964.3
20260903221534 98 251 0.0 5.0 0.27 1.22 1.07 35 964.5
20260903220015 98 196 0.0 9.0 0.31 1.19 1.04 35 964.7
20260903214512 98 189 3.0 14.0 0.21 1.19 0.93 34 965.0
20260903213019 98 263 0.0 12.0 0.30 1.15 0.90 35 965.2
20260903211508 98 109 2.0 11.0 0.26 1.06 0.80 34 965.4
20260903210009 98 132 0.0 4.0 0.20 1.48 0.73 35 965.6
20260903204507 97 215 1.0 10.0 0.27 1.47 0.72 36 965.9
20260903203001 97 213 8.0 14.0 0.20 1.35 0.60 35 966.2
20260903201600 98 123 0.0 6.0 0.22 1.29 0.54 38 966.3
20260903200057 97 158 1.0 10.0 0.25 1.28 0.53 39 966.5
20260903194555 96 162 4.0 10.0 0.24 1.49 0.45 40 966.5
20260903193052 95 187 3.0 13.0 0.22 1.44 0.40 38 966.9
20260903191551 96 194 1.0 9.0 0.27 1.36 0.32 37 967.1
20260903190048 94 141 0.0 8.0 0.24 1.32 0.28 40 967.4
20260903184548 95 170 1.0 10.0 0.14 1.62 0.18 40 967.6
20260903183048 94 138 1.0 8.0 0.17 1.62 0.18 41 967.9
20260903181546 94 195 1.0 8.0 0.04 1.49 0.05 40 968.1
20260903180108 93 131 0.0 8.0 0.03 1.48 0.04 42 968.3
20260903174543 93 112 0.0 7.0 0.03 1.77 0.04 44 968.4
20260903173042 93 92 0.0 8.0 0.00 1.74 0.01 45 968.6
20260903171548 92 69 1.0 7.0 0.00 1.74 0.01 47 968.5
20260903170038 91 130 0.0 0.0 0.00 1.74 0.01 47 968.6
20260903164537 91 109 0.0 0.0 0.00 1.76 0.01 48 968.6
20260903163041 91 154 0.0 0.0 0.00 1.76 0.01 49 968.6
20260903161533 90 140 0.0 0.0 0.01 1.76 0.01 50 968.7
20260903160031 89 140 0.0 0.0 0.01 1.76 0.01 51 968.8
20260903154530 88 137 0.0 0.0 0.01 1.76 0.01 54 968.8
20260903153030 88 136 0.0 0.0 0.01 1.76 0.01 56 968.8
20260903151530 86 100 0.0 0.0 0.00 1.75 0.00 58 968.8
20260903150030 85 100 0.0 0.0 0.00 1.75 0.00 60 968.8
20260903144529 85 98 0.0 0.0 0.00 1.75 0.00 61 968.9
20260903143027 85 80 0.0 0.0 0.00 1.75 0.00 61 968.9
20260903141528 85 76 0.0 0.0 0.00 1.75 0.00 62 968.9